Preview of NWS' New Version of Forecast
This preview is not operational and should not be used for support decisions.
Latest weather observations around

Merkel Field Sylacauga Municipal Airport (KSCD)

Using English Units (Switch to International System of Units)
Date/ Time (CDT) Wind (mph) Vis. (mi) Weather Sky Cond. Temp (°F) Rel. Humidity Wind Chill (°F) Heat Index (°F) Pressure Precip. (in)
Air Dwpt 6 hour Altimeter (inHg) Sea level (inHg) 1 hr 3 hr 6 hr
Max Min
Apr 21 11:55 SE 6 10 Clear CLR 71 45     39%   70 30.26        
Apr 21 11:35 SE 10 10 Clear CLR 70 44     40%     30.27        
Apr 21 11:15 SSE 14 10 Clear CLR 69 44     40%     30.28        
Apr 21 10:55 SE 14 10 Clear CLR 68 43     40%     30.28        
Apr 21 10:35 E 15 10 Clear CLR 67 41     39%     30.29        
Apr 21 10:15 SE 13 10 Clear CLR 66 40     38%     30.29        
Apr 21 09:55 SE 14 10 Clear CLR 65 40     40%     30.3        
Apr 21 09:35 E 14 10 Clear CLR 64 41     43%     30.29        
Apr 21 09:15 ESE 14 10 Clear CLR 63 42     47%     30.29        
Apr 21 08:55 ESE 11 10 Clear CLR 61 44     53%     30.29        
Apr 21 08:35 ESE 9 10 Clear CLR 59 44     57%     30.29        
Apr 21 08:15 ESE 8 10 Clear CLR 57 44     61%     30.29        
Apr 21 07:55 SE 7 10 Clear CLR 56 44     64%     30.3        
Apr 21 07:35 SE 5 10 Clear CLR 54 43     67%     30.29        
Apr 21 07:15 Calm 10 Clear CLR 44 44     100%     30.29        
Apr 21 06:55 Calm 10 Clear CLR 40 40     100%     30.28        
Apr 21 06:35 Calm 10 Clear CLR 38 38     100%     30.28        
Apr 21 06:15 Calm 10 Clear CLR 38 38     100%     30.28        
Apr 21 05:55 Calm 10 Clear CLR 38 38     100%     30.27        
Apr 21 05:35 Calm 10 Clear CLR 40 40     100%     30.26        
Apr 21 05:15 Calm 10 Clear CLR 39 39     100%     30.27        
Apr 21 04:55 Calm 10 Clear CLR 40 40     100%     30.26        
Apr 21 04:35 Calm 10 Clear CLR 40 40     100%     30.26        
Apr 21 04:15 Calm 10 Clear CLR 40 40     100%     30.26        
Apr 21 03:55 Calm 10 Clear CLR 42 42     100%     30.26        
Apr 21 03:35 Calm 10 Clear CLR 41 41     100%     30.26        
Apr 21 03:15 Calm 10 Clear CLR 41 41     100%     30.26        
Apr 21 02:55 Calm 10 Clear CLR 42 42     100%     30.26        
Apr 21 02:35 Calm 10 Clear CLR 40 40     100%     30.26        
Apr 21 02:15 Calm 10 Clear CLR 41 41     100%     30.27        
Apr 21 01:55 Calm 10 Clear CLR 41 41     100%     30.26        
Apr 21 01:35 Calm 10 Clear CLR 40 40     100%     30.26        
Apr 21 01:15 Calm 10 Clear CLR 42 42     100%     30.25        
Apr 21 00:55 Calm 10 Clear CLR 42 42     100%     30.26        
Apr 21 00:35 Calm 10 Clear CLR 43 42     96%     30.27        
Apr 21 00:15 Calm 10 Clear CLR 43 41     92%     30.27        
Apr 20 23:55 Calm 10 Clear CLR 43 41     91%     30.27        
Apr 20 23:35 Calm 10 Clear CLR 43 40     89%     30.26        
Apr 20 23:15 Calm 10 Clear CLR 44 41     88%     30.25        
Apr 20 22:55 Calm 10 Clear CLR 46 42     87%     30.25        
Apr 20 22:35 Calm 10 Clear CLR 46 42     85%     30.25        
Apr 20 22:15 Calm 10 Clear CLR 46 43     88%     30.25        
Apr 20 21:55 Calm 10 Clear CLR 47 42     83%     30.26        
Apr 20 21:35 Calm 10 Clear CLR 49 44     83%     30.26        
Apr 20 21:15 Calm 10 Clear CLR 49 43     80%     30.26        
Apr 20 20:55 Calm 10 Clear CLR 51 43     73%     30.26        
Apr 20 20:35 Calm 10 Clear CLR 52 42     69%     30.26        
Apr 20 20:15 Calm 10 Clear CLR 54 42     63%     30.25        
Apr 20 19:55 Calm 10 Clear CLR 55 42     60%     30.25        
Apr 20 19:35 Calm 10 Clear CLR 60 39     46%     30.25        
Apr 20 19:15 Calm 10 Clear CLR 63 37     37%     30.24        
Apr 20 18:55 E 6 10 Clear CLR 67 35     31%     30.24        
Apr 20 18:35 E 6 10 Clear CLR 68 35     30%     30.24        
Apr 20 18:15 E 8 10 Clear CLR 69 35     28%     30.24        
Apr 20 17:55 E 3 10 Clear CLR 70 35     27%     30.23        
Apr 20 17:35 ENE 7 10 Clear CLR 70 36     29%   68 30.23        
Apr 20 17:15 E 7 10 Clear CLR 71 36     28%   69 30.24        
Apr 20 16:55 ENE 6 10 Clear CLR 71 37     29%   69 30.24        
Apr 20 16:35 SSE 3 10 Clear CLR 71 38     30%   69 30.24        
Apr 20 16:15 E 10 10 Clear CLR 71 38     29%   69 30.24        
Apr 20 15:55 Calm 10 Clear CLR 71 38     30%   69 30.25        
Apr 20 15:35 ENE 6 10 Clear CLR 70 38     31%   68 30.25        
Notice The following observation data may not be complete
Apr 20 15:15   10 Clear CLR          %              
Apr 20 14:55 E 9 10 Clear CLR 70 39     32%     30.26        
Apr 20 14:35 ESE 10 10 Clear CLR 70 40     33%   69 30.27        
Apr 20 14:15 ENE 10 10 Clear CLR 69 39     33%     30.28        
Apr 20 13:55 Calm 10 Clear CLR 67 38     34%     30.29        
Apr 20 13:35 ESE 5 10 Clear CLR 68 39     35%     30.3        
Apr 20 13:15 ENE 9 10 Clear CLR 67 38     35%     30.3        
Apr 20 12:55 ENE 6 10 Clear CLR 66 37     35%     30.31        
Apr 20 12:35 ESE 7 10 Clear CLR 66 37     35%     30.32        
Apr 20 12:15 ENE 5 10 Clear CLR 64 36     36%     30.32        
Apr 20 11:55 E 9 10 Clear CLR 64 35     34%     30.33        
Apr 20 11:35 ENE 10 10 Clear CLR 63 36     36%     30.33        
Apr 20 11:15 NE 7 10 Clear CLR 61 35     38%     30.33        
Apr 20 10:55 E 9 10 Clear CLR 61 35     38%     30.33        
Apr 20 10:35 ENE 11 10 Clear CLR 60 35     40%     30.33        
Apr 20 10:15 E 11 10 Clear CLR 58 33     39%     30.32        
Apr 20 09:55 E 11 10 Clear CLR 57 33     40%     30.32        
Apr 20 09:35 E 13 10 Clear CLR 56 32     40%     30.32        
Apr 20 09:15 E 10 10 Clear CLR 54 32     43%     30.32        
Apr 20 08:55 E 11 10 Clear CLR 52 37     57%     30.32        
Apr 20 08:35 ENE 7 10 Clear CLR 49 37     64% 46   30.32        
Apr 20 08:15 NE 7 10 Clear CLR 47 36     67% 43   30.32        
Apr 20 07:55 ENE 7 10 Clear CLR 45 36     71% 41   30.32        
Apr 20 07:35 NE 6 10 Clear CLR 44 36     73% 40   30.33        
Apr 20 07:15 NE 5 10 Clear CLR 43 35     74% 40   30.32        
Apr 20 06:55 NE 3 10 Clear CLR 42 35     77% 40   30.31        
Apr 20 06:35 Calm 10 Clear CLR 41 35     79%     30.3        
Apr 20 06:15 Calm 10 Clear CLR 41 34     78%     30.29        
Apr 20 05:55 NE 3 10 Clear CLR 41 34     77% 39   30.27        
Apr 20 05:35 NE 6 10 Clear CLR 41 34     76% 37   30.26        
Apr 20 05:15 NE 6 10 Clear CLR 42 35     75% 38   30.26        
Apr 20 04:55 NE 6 10 Clear CLR 42 35     75% 38   30.25        
Apr 20 04:35 NE 6 10 Clear CLR 42 35     74% 39   30.25        
Apr 20 04:15 NE 5 10 Clear CLR 43 35     73% 40   30.25        
Apr 20 03:55 NNE 5 10 Clear CLR 44 35     72% 41   30.24        
Apr 20 03:35 NE 6 10 Clear CLR 44 35     71% 40   30.24        
Apr 20 03:15 NE 6 10 Clear CLR 44 35     71% 41   30.23        
Apr 20 02:55 NE 6 10 Clear CLR 44 36     72% 41   30.23        
Apr 20 02:35 NE 5 10 Clear CLR 44 36     72% 42   30.22        
Apr 20 02:15 NE 6 10 Clear CLR 45 36     72% 41   30.22        
Apr 20 01:55 NE 6 10 Clear CLR 45 36     71% 42   30.22        
Apr 20 01:35 ENE 5 10 Clear CLR 45 36     73% 42   30.22        
Apr 20 01:15 NE 5 10 Clear CLR 45 36     70% 43   30.23        
Apr 20 00:55 ENE 5 10 Clear CLR 46 36     69% 44   30.22        
Apr 20 00:35 NNE 3 10 Clear CLR 46 36     68% 45   30.23        
Apr 20 00:15 NNE 3 10 Clear CLR 47 36     66% 46   30.23        
Apr 19 23:55 Calm 10 Clear CLR 47 36     66%     30.23        
Apr 19 23:35 Calm 10 Clear CLR 48 36     64%     30.23        
Apr 19 23:15 Calm 10 Clear CLR 48 36     63%     30.23        
Apr 19 22:55 N 5 10 Clear CLR 49 36     62% 47   30.24        
Apr 19 22:35 N 3 10 Clear CLR 49 36     60% 48   30.24        
Apr 19 22:15 Calm 10 Clear CLR 49 36     62%     30.24        
Apr 19 21:55 N 3 10 Clear CLR 50 37     60% 49   30.24        
Notice The following observation data may not be complete
Apr 19 21:35   10 Clear CLR          %              
Apr 19 21:15 N 5 10 Clear CLR 51 37     58%     30.24        
Apr 19 20:35 N 3 10 Clear CLR 52 37     56%     30.23        
Apr 19 20:15 N 5 10 Clear CLR 53 37     55%     30.23        
Apr 19 19:55 NNW 7 10 Clear CLR 54 37     53%     30.22        
Apr 19 19:35 N 3 10 Clear CLR 55 38     53%     30.21        
Apr 19 19:15 Calm 10 Clear CLR 56 39     52%     30.2        
Apr 19 18:55 N 6 10 Clear CLR 58 39     50%     30.19        
Apr 19 18:35 N 5 10 Clear CLR 59 39     48%     30.18        
Apr 19 18:15 NNW 5 10 Clear CLR 59 40     48%     30.18        
Apr 19 17:55 N 5 10 Clear CLR 60 41     48%     30.18        
Apr 19 17:35 N 8 10 Clear CLR 61 41     48%     30.17        
Apr 19 17:15 N 8 10 Clear CLR 62 43     49%     30.16        
Apr 19 16:55 NE 11 10 Clear CLR 63 43     48%     30.16        
Apr 19 16:35 NNW 8 10 Clear CLR 64 42     44%     30.16        
Apr 19 16:15 N 5 10 Clear CLR 65 42     44%     30.15        
Apr 19 15:55 N 8 10 Clear CLR 65 44     45%     30.15        
Apr 19 15:35 NNW 7 10 Clear CLR 65 43     44%     30.15        
Apr 19 15:15 NW 6 10 Clear CLR 65 42     42%     30.15        
Apr 19 14:55 NNW 9 10 Clear CLR 66 42     42%     30.16        
Apr 19 14:35 NW 8 10 Clear CLR 65 41     42%     30.16        
Apr 19 14:15 N 8 10 Clear CLR 66 43     43%     30.16        
Apr 19 13:55 NNW 8 10 Clear CLR 65 42     42%     30.16        
Apr 19 13:35 N 7 10 Clear CLR 65 42     43%     30.16        
Apr 19 13:15 NNE 10 10 Clear CLR 65 43     44%     30.16        
Apr 19 12:55 NNW 9 10 Clear CLR 65 43     43%     30.16        
Apr 19 12:35 NNW 10 10 Clear CLR 65 43     44%     30.15        
Apr 19 12:15 N 8 10 Clear CLR 66 45     46%     30.15        
Apr 19 11:55 NNW 7 10 Clear CLR 65 42     44%     30.15        
Apr 19 11:35 N 7 10 Clear CLR 65 44     47%     30.14        
Apr 19 11:15 NNW 8 10 Clear CLR 64 44     48%     30.14        
Apr 19 10:55 NNW 8 10 Clear CLR 64 43     47%     30.13        
Apr 19 10:35 NW 9 10 Clear CLR 63 43     47%     30.13        
Apr 19 10:15 NW 10 10 Clear CLR 64 43     47%     30.12        
Notice The following observation data may not be complete
Apr 19 09:35   10 Clear CLR          %              
Apr 19 09:15 NNW 10 10 Clear CLR 62 44     53%     30.1        
Apr 19 08:55 N 8 10 Clear CLR 61 44     54%     30.1        
Apr 19 08:35 NNW 8 10 Clear CLR 61 44     55%     30.1        
Apr 19 08:15 NNW 10 10 Clear CLR 61 45     56%     30.09        
Apr 19 07:55 NNW 10 10 Clear CLR 60 46     59%     30.08        
Apr 19 07:35 NW 5 10 Clear CLR 60 46     61%     30.08        
Apr 19 07:15 WNW 6 10 Clear CLR 60 47     62%     30.07        
Apr 19 06:55 NNW 3 10 Clear CLR 60 49     67%     30.06        
Apr 19 06:35 NNW 3 10 Clear CLR 60 49     67%     30.04        
Notice The following observation data may not be complete
Apr 19 06:15   10 Clear CLR          %              
Apr 19 05:55 NW 5 10 Clear CLR 61 57     87%     30.02        
Apr 19 05:35 NW 3 10 Partly Cloudy SCT026 SCT031 59 59     100%     30.01        
Apr 19 05:15 Calm 10 Mostly Cloudy BKN026 57 57     100%     30        
Apr 19 04:55 Calm 10 Mostly Cloudy BKN024 58 58     100%     29.99        
Notice The following observation data may not be complete
Apr 19 04:35   10 Cloudy OVC022          %              
Apr 19 04:15 Calm 10 Mostly Cloudy BKN022 57 57     100%     29.98        
Apr 19 03:55 Calm 10 Partly Cloudy SCT024 SCT035 58 58     100%     29.98        
Apr 19 03:35 Calm 10 Mostly Cloudy BKN030 BKN035 59 59     100%     29.97        
Apr 19 03:15 Calm 10 Mostly Cloudy BKN030 BKN036 57 57     100%     29.96        
Notice The following observation data may not be complete
Apr 19 02:55 WNW 3 10 Partly Cloudy SCT030   55      %     29.96        
Apr 19 02:35 Calm 7 Clear CLR 57 57     100%     29.96        
Apr 19 02:15 Calm 7 Clear CLR 57 57     100%     29.96        
Apr 19 01:55 Calm 7 Clear CLR 58 58     100%     29.97        
Apr 19 01:35 Calm 10 Partly Cloudy SCT050 58 58     100%     29.98        
Apr 19 01:15 Calm 10 Partly Cloudy SCT050 59 59     100%     29.98        
Apr 19 00:55 Calm 10 Mostly Cloudy BKN055 60 60     100%     29.99        
Apr 19 00:35 Calm 10 Mostly Cloudy BKN055 61 60     97%     29.99        
Apr 19 00:15 Calm 10 Mostly Cloudy BKN055 61 59     91%     29.99        
Apr 18 23:55 Calm 10 Mostly Cloudy BKN055 61 59     94%     29.99        
Apr 18 23:35 Calm 10 Mostly Cloudy BKN055 61 59     94%     29.99        
Apr 18 23:15 Calm 4 Fog/Mist BKN055 62 58     90%     29.99        
Apr 18 22:55 Calm 10 Partly Cloudy SCT055 61 58     92%     29.99        
Notice The following observation data may not be complete
Apr 18 22:35 Calm 10 Partly Cloudy SCT055   59      %     29.99        
Apr 18 22:15 Calm 10 Clear CLR 60 57     91%     29.99        
Apr 18 21:55 Calm 10 Clear CLR 61 58     90%     29.98        
Apr 18 21:35 Calm 10 Clear CLR 62 58     86%     29.98        
Apr 18 21:15 Calm 10 Clear CLR 62 58     86%     29.98        
Apr 18 20:55 Calm 10 Clear CLR 63 58     82%     29.97        
Apr 18 20:35 Calm 10 Clear CLR 66 58     75%     29.96        
Apr 18 20:15 Calm 10 Clear CLR 67 58     74%     29.96        
Apr 18 19:55 W 3 10 Clear CLR 69 58     68%     29.95        
Apr 18 19:35 WSW 6 10 Clear CLR 71 57     61%   71 29.95        
Apr 18 19:15 WSW 7 10 Clear CLR 73 57     57%   73 29.94        
Apr 18 18:55 SW 8 10 Clear CLR 75 57     54%   75 29.94        
Apr 18 18:35 SW 10 10 Clear CLR 77 57     51%   77 29.94        
Apr 18 18:15 WSW 10 10 Clear CLR 78 56     48%   78 29.94        
Apr 18 17:55 WSW 13 10 Clear CLR 79 56     45%   79 29.94        
Apr 18 17:35 WSW 11 10 Clear CLR 79 56     45%   79 29.94        
Apr 18 17:15 SW 16 10 Clear CLR 80 56     44%   79 29.93        
Apr 18 16:55 SSW 13 10 Clear CLR 80 56     43%   80 29.93        
Apr 18 16:35 SW 11 10 Clear CLR 81 55     41%   80 29.94        
Apr 18 16:15 SW 11 10 Clear CLR 81 55     42%   81 29.94        
Apr 18 15:55 WSW 18 10 Clear CLR 80 54     41%   80 29.94        
Apr 18 15:35 SW 17 10 Clear CLR 81 54     40%   80 29.95        
Apr 18 15:15 SSW 13 10 Clear CLR 81 55     42%   81 29.96        
Apr 18 14:55   10 Clear CLR 81 54     40%   80 29.97        
Apr 18 14:35 SSW 14 10 Clear CLR 80 54     41%   80 29.98        
Apr 18 14:15 SW 17 10 Clear CLR 80 54     42%   79 29.98        
Apr 18 13:55 SW 13 10 Clear CLR 79 55     43%   79 29.99        
Apr 18 13:35 WSW 15 10 Clear CLR 78 55     45%   78 30        
Apr 18 13:15 SW 14 10 Clear CLR 77 55     47%   77 30.01        
Apr 18 12:55 SSW 10 10 Clear CLR 76 55     49%   76 30.01       0
Apr 18 12:35 WSW 14 10 Clear CLR 75 55     50%   75 30.02        
Apr 18 12:15 SW 13 10 Clear CLR 74 56     55%   73 30.04        
Jun 12 04:15 Calm 10 Clear CLR 72 72     100%   74 30.14        
Jun 12 03:55 Calm 10 Clear CLR 73 73     100%   75 30.14        
Jun 11 21:55 Calm 10 Clear   79 71     79%   80 30.15        
Jun 11 20:55 SSE 5 10 Clear   80 73     79%   84 30.12        
Jun 11 17:15 S 6 10 Partly Cloudy SCT045 90 72     54%   98 30.09        
Jun 11 15:15 SE 8 10 Partly Cloudy SCT045 89 71     56%   96 30.12        
Jun 11 09:55 S 5 10 Mostly Cloudy BKN020 BKN085 83 74     74%   89 30.17        
Jun 11 09:15 SE 7 10 Partly Cloudy SCT016 SCT110 81 74     77%   87 30.17        
Notice The following observation data may not be complete
Jun 11 02:35   10 Clear CLR          %              
Jun 11 02:15 Calm 10 Clear   66 66     100%     30.09        
Jun 11 00:15 Calm 10 Clear CLR 68 68     100%     30.11        
Jun 10 18:35 SSE 3 10 Clear   83 65     54%   85 30.05        
Jun 10 16:35 SE 5 10 Clear CLR 88 62     42%   88 30.05        
Jun 10 13:35 SSE 8 10 Partly Cloudy SCT065 SCT075 87 64     47%   89 30.09        
Jun 10 12:55 SSE 3 10 Mostly Cloudy SCT060 BKN075 87 63     44%   88 30.1        
Jun 10 11:35 S 5 10 Partly Cloudy SCT065 87 61     42%   87 30.11        
Jun 10 09:15 Calm 10 Partly Cloudy SCT080 SCT100 80 69     68%   83 30.1        
Jun 10 05:15 Calm 10 Mostly Cloudy BKN080 BKN095 63 63     100%     30.03        
Jun 10 03:15 Calm 10 Partly Cloudy SCT060 SCT070 64 64     100%     30.01        
Jun 10 02:35 Calm 10 Partly Cloudy SCT060 64 64     100%     30.01        
Jun 09 20:35 Calm 10 Clear CLR 72 67     86%   73 29.96        
Jun 09 05:35 Calm 10 Partly Cloudy SCT060 60 60     100%     29.95        
Jun 08 18:35 Calm 10 Partly Cloudy SCT110 79 62     56%   80 29.86        
Jun 08 02:15 Calm 10 Clear CLR 61 61     100%     29.87        
Jun 08 01:55 Calm 10 Clear CLR 62 61     97%     29.87        
Jun 07 17:35 NNE 5 10 Clear CLR 82 61     49%   83 29.82        
Jun 07 11:35 NE 8 10 Clear   79 68     69%   82 29.82        
Jun 07 09:35 NE 7 10 Clear CLR 74 65     72%   75 29.82        
Jun 06 10:55 Calm 10 Light Drizzle SCT005 BKN049 OVC055 72 72     100%   74 29.82   0    
Notice The following observation data may not be complete
Jun 06 05:55   10 Cloudy OVC005          %              
Jun 06 04:55 Calm 10 Cloudy BKN005 BKN055 OVC070 72 72     100%   74 29.8        
Jun 06 03:35 Calm 10 Light Rain SCT037 SCT048 SCT070 72 72     100%   74 29.8        
Jun 06 01:55 Calm 10 Cloudy SCT035 BKN042 OVC065 72 72     100%   74 29.81        
Jun 05 15:55 ENE 5 7 Rain SCT005 BKN048 OVC100 74 74     100%   76 29.81   0 1